Location: Bussy-Saint-Georges
(48.8410°N, 2.7017°E)
Time: 16:24:13
(UTC+00:00)

BREEZE-M DEB (TANK) - Pass Details

Date: 18 October 2021
Orbit: 334 x 14800 km, 49.5° (Epoch: 28 November)

Event Time Altitude Azimuth Distance (km) Brightness Sun altitude
Rises 18:23:24 0° 279° (W) 5,888 10.1 -15.5°
Reaches altitude 10° 18:28:49 10° 280° (W) 3,437 8.4 -16.4°
Maximum altitude 18:35:22 88° 190° (S) 572 3.0 -17.5°
Enters shadow 18:36:18 44° 104° (ESE) 691 3.0 -17.6°
